SCP
1 2 2 2 1 1 2 1 1 1 1 0 0 0 0 0 0 0 0 0 0 0 0 0 0 0 0 -0 -0 0 0 0 0 0 0 0 0 0 0 0 0 0 0
1 1 1 1 1 1 1 1 1 0 0 0 0 0 0 0 0 0 0 0 0 0 0 0 -0 0 0 0 0 0 0 -0 0 0 0 0 0 0 0 0 0 0 0
0 0 0 0 0 1 0 0 0 0 0 0 0 0 0 0 0 0 0 0 0 0 0 0 -0 0 0 0 0 0 0 0 0 0 0 0 0 0 0 0 0 0 0
0 0 0 0 0 0 0 0 0 0 0 0 0 0 0 0 0 0 0 0 0 0 0 0 0 0 0 0 -0 -0 0 0 0 0 0 0 0 0 0 0 0 0 0
0 0 0 0 0 0 0 0 0 0 0 0 0 0 0 0 0 0 0 0 0 0 0 -0 0 0 0 0 0 -0 0 0 0 0 0 0 0 0 0 0 0 0 0
0 0 0 0 0 0 0 0 0 0 0 -0 0 0 0 0 0 0 0 0 0 0 0 0 0 0 0 0 0 0 0 0 0 0 0 0 0 0 0 0 0 0 0
0 0 0 0 0 0 0 0 0 0 -0 0 0 0 0 -0 0 0 0 0 0 0 0 0 0 0 0 0 0 0 0 0 0 0 0 0 0 0 0 0 0 0 0
0 0 0 0 0 0 0 0 -0 0 0 0 0 0 -0 0 0 0 0 -0 -0 -0 -0 0 0 0 0 0 0 0 0 0 0 0 0 0 0 0 0 0 0 0 0
0 0 -0 0 0 -0 0 -0 -0 -0 -0 0 0 -0 -0 -0 -0 0 0 -0 -0 -0 -0 0 0 0 0 0 0 0 0 0 0 0 0 -0 0 0 0 0 0 0 0
0 -0 0 0 -0 -0 -0 -0 -0 -0 -0 0 -0 -0 -0 -0 -0 -0 0 -0 -0 0 0 0 0 0 0 0 0 0 0 0 0 0 0 0 0 0 0 0 0 0 0
-0 0 -0 0 -0 -0 -0 0 -0 -0 0 0 -0 -0 -0 -0 -0 -0 -0 -0 -0 -0 0 0 0 0 0 0 0 0 0 0 0 0 0 0 0 0 0 0 0 0 0
-0 0 0 0 0 -0 0 0 -0 0 0 0 0 -0 -0 -0 -0 -0 0 -0 0 0 -0 0 0 0 0 0 0 0 0 0 0 0 0 0 0 0 0 0 0 0 0
0 -0 -0 0 -0 -0 0 -0 -0 -0 0 0 0 0 0 -0 -0 -0 -0 0 -0 0 0 0 0 0 0 0 0 0 0 0 0 0 0 0 0 0 0 0 0 0 0
-0 -0 0 -0 -0 -0 0 0 0 0 0 0 0 0 0 0 0 -0 0 -0 -0 -0 0 0 0 0 0 0 0 0 0 0 0 0 0 0 0 0 0 0 0 0 0
-0 -0 0 -0 0 -0 -0 0 0 0 0 0 0 0 -0 -0 0 0 0 0 0 0 0 0 0 0 0 0 0 0 0 0 0 0 0 0 0 0 0 0 0 0 0
-0 0 -0 -0 -0 -0 -0 0 -0 0 0 0 0 0 -0 -0 -0 -0 0 -0 -0 -0 0 0 0 0 0 0 0 0 -0 -0 -0 -0 0 0 0 0 0 0 0 0 0
0 -0 -0 0 -0 -0 -0 0 0 0 0 -0 -0 -0 -0 -0 -0 -0 0 -0 -0 0 -0 -0 0 0 0 0 0 -0 -0 0 -0 -0 0 0 0 0 0 0 -0 -0 -0
-0 0 -0 -0 -0 -0 -0 -0 -0 0 0 0 -0 -0 -0 -0 -0 -0 0 0 0 0 0 0 0 0 0 0 0 0 0 0 0 0 0 -0 0 0 0 0 -0 -0 -0
0 0 0 -0 -0 -0 0 0 0 0 -0 0 0 0 0 -0 0 -0 -0 0 0 0 0 0 0 0 0 0 0 0 0 0 0 0 0 0 0 0 0 0 -0 -0 -0
-0 0 0 -0 0 -0 -0 0 0 -0 -0 -0 -0 0 -0 -0 -0 -0 0 0 0 0 0 -0 0 0 0 0 0 0 0 0 0 0 -0 -0 0 0 0 0 0 0 0
0 0 0 0 0 0 0 -0 -0 -0 -0 -0 0 0 0 -0 -0 -0 0 0 0 0 0 0 0 -0 -0 0 0 0 0 0 0 0 0 -0 -0 -0 -0 -0 0 0 0
0 0 0 0 0 0 0 0 0 0 -0 0 0 -0 -0 0 -0 0 0 -0 -0 -0 -0 -0 0 0 0 0 0 -0 0 0 0 -0 0 -0 0 0 -0 -0 -0 -0 -0
0 0 0 0 0 0 0 0 -0 0 0 -0 -0 -0 -0 0 -0 0 0 0 0 0 -0 0 0 0 0 0 0 0 0 0 0 -0 -0 0 -0 -0 0 0 0 0 0
0 0 -0 0 0 0 0 0 0 0 0 0 0 -0 0 -0 0 0 0 0 0 0 0 0 0 0 -0 -0 -0 -0 -0 -0 0 0 -0 -0 0 0 0 0 0 0 0
0 0 0 0 0 0 0 0 0 -0 0 0 0 0 -0 -0 -0 -0 -0 0 0 -0 -0 -0 -0 -0 -0 -0 -0 -0 -0 0 0 0 0 0 0 0 0 0 0 0 0
0 0 0 0 0 0 0 0 0 0 0 0 0 0 0 0 0 0 0 0 0 0 0 0 0 -0 0 0 0 0 0 0 0 0 0 0 0 0 0 0 0 0 0
Wind_Speed_500mb
47 49 54 53 44 47 46 41 37 37 33 29 26 21 20 21 21 23 29 25 27 29 29 25 23 19 20 22 19 19 19 26 28 31 28 32 30 27 36 27 31 36 35
50 52 51 52 48 44 41 36 34 30 27 24 23 22 20 17 19 18 16 18 24 32 31 34 26 18 20 24 26 18 16 28 31 31 33 30 27 26 29 32 34 37 39
49 49 47 45 43 41 36 32 29 26 25 23 23 20 18 15 11 13 16 23 29 31 25 31 21 22 21 25 24 21 19 24 32 31 36 32 33 31 36 36 41 43 43
44 44 43 41 38 36 32 29 26 26 25 23 21 16 14 8 7 9 15 21 25 29 23 26 26 16 19 26 28 24 23 25 36 34 35 34 33 32 38 45 45 41 45
45 42 39 36 34 31 29 28 28 27 25 24 19 16 10 3 9 10 8 9 17 13 23 28 26 19 23 26 24 29 28 31 32 33 40 40 38 41 49 50 50 50 49
41 38 36 34 32 32 31 33 30 28 26 21 19 14 10 9 9 2 6 1 11 13 21 28 23 17 24 29 23 22 29 35 31 41 46 45 48 49 50 52 54 63 63
38 37 34 33 34 33 33 32 30 27 26 21 17 12 8 3 1 8 12 6 15 24 24 27 16 21 23 24 23 25 32 28 21 42 47 51 51 53 59 58 61 68 86
37 35 30 32 32 34 34 31 30 26 23 19 16 11 7 2 4 10 15 11 17 14 17 23 19 17 20 23 24 27 32 30 22 26 37 44 44 52 54 57 66 72 64
36 30 31 27 29 32 34 34 29 25 21 15 12 10 7 5 8 11 13 10 15 13 11 17 20 18 19 19 29 32 32 36 31 24 31 42 44 54 63 56 68 71 69
35 29 24 27 27 35 34 33 27 22 19 16 11 11 6 5 10 10 13 8 12 15 14 24 22 16 17 33 34 40 38 39 39 32 34 33 45 48 42 57 61 69 68
34 26 25 27 29 31 29 30 26 23 21 18 15 13 9 6 9 8 7 10 17 17 19 25 26 18 35 38 37 34 36 42 37 33 37 43 45 42 42 48 49 55 63
35 30 27 27 28 28 28 27 24 23 20 18 14 11 10 9 11 11 12 17 14 10 22 26 30 31 35 32 30 32 36 38 38 37 44 45 55 43 42 47 41 45 40
34 30 27 28 28 27 25 23 23 20 23 24 18 15 13 14 13 9 12 17 23 17 29 33 36 38 40 27 22 29 34 37 40 43 44 45 45 39 36 42 38 45 30
32 29 30 29 25 22 17 16 14 15 17 19 21 21 17 18 16 12 13 18 19 29 38 40 38 40 38 33 32 30 28 32 38 37 40 39 39 50 55 40 35 27 22
32 30 30 27 25 19 15 15 15 18 17 18 19 19 22 23 20 18 20 19 26 35 44 42 42 42 43 39 35 28 30 38 41 41 60 49 49 44 38 32 28 36 21
33 31 31 22 24 22 16 19 15 18 16 17 19 18 18 19 23 24 29 22 28 37 41 40 43 43 39 41 45 29 38 37 42 43 45 38 37 33 30 29 31 33 20
30 30 25 23 23 31 26 19 17 18 16 20 24 19 9 27 25 24 26 26 31 34 25 29 38 39 43 36 39 30 38 34 37 34 36 32 30 27 30 27 27 26 27
27 26 26 23 24 29 27 22 19 17 18 20 20 19 24 26 25 27 31 34 35 27 23 24 30 34 40 26 30 32 35 32 33 33 33 30 36 34 30 28 29 28 29
33 27 22 26 30 28 27 21 24 21 24 20 27 27 28 28 25 25 29 24 20 21 20 23 24 26 31 28 25 25 25 26 26 27 29 32 34 35 31 30 30 31 31
30 26 19 29 21 28 22 24 23 25 24 22 21 25 31 33 32 31 32 27 18 15 21 22 25 23 23 26 26 24 24 25 25 24 24 28 32 36 34 34 34 36 36
33 30 15 24 23 31 33 30 32 28 26 24 22 20 23 24 31 32 29 23 20 18 18 20 21 21 23 26 29 31 27 25 26 26 28 30 32 36 38 39 39 39 41
36 33 25 27 25 28 28 26 23 28 31 35 25 27 34 29 17 19 21 21 17 18 14 14 23 19 23 24 23 21 24 27 28 29 32 34 36 38 40 42 43 44 44
34 33 28 19 25 27 23 24 23 24 29 34 27 26 29 13 19 18 16 17 17 16 15 14 14 13 14 16 18 20 22 25 26 29 31 32 35 37 39 41 43 46 50
24 30 30 22 27 25 23 19 22 18 15 31 30 24 15 10 13 15 21 20 16 12 8 7 9 15 20 27 30 27 27 26 25 26 30 33 36 38 41 45 48 51 54
32 29 21 18 24 20 28 30 31 42 29 34 38 33 31 25 26 25 30 28 18 18 20 21 26 28 30 27 31 32 33 33 38 40 37 33 30 38 44 47 50 52 55
39 41 45 43 41 40 40 42 41 35 35 34 29 33 26 31 26 27 26 23 14 12 14 18 24 25 25 28 38 47 48 48 50 52 57 60 57 42 43 49 52 57 62
Wind_Direction_500mb
156 156 158 159 153 147 152 150 153 151 159 168 179 187 201 203 205 214 222 220 223 222 220 219 226 244 227 198 202 201 218 197 180 169 167 161 165 163 171 158 163 171 166
148 149 149 144 143 144 145 149 151 154 163 175 184 186 186 193 212 227 228 231 236 226 228 228 235 234 222 196 201 197 184 185 177 163 160 156 155 163 174 167 169 167 169
143 143 139 142 142 144 148 152 155 164 168 168 169 174 184 199 223 238 240 240 234 239 255 229 232 222 213 197 194 195 197 187 180 165 169 176 174 182 169 167 171 168 169
145 142 141 142 146 150 154 157 163 162 162 162 168 179 178 193 227 260 254 257 246 246 232 209 201 210 203 198 196 183 193 176 171 176 176 170 166 165 167 161 156 166 162
143 143 144 147 152 156 160 163 162 162 162 167 166 172 169 176 234 244 300 265 218 223 190 191 190 206 193 181 184 184 175 165 162 179 173 165 165 164 164 167 161 163 161
145 147 147 149 151 153 157 160 157 160 168 158 179 161 149 222 286 257 168 81 152 171 180 178 190 187 174 186 180 181 174 170 180 178 173 172 169 171 172 167 156 156 148
145 145 145 150 154 155 158 155 159 168 159 175 155 163 131 274 351 134 141 129 145 155 165 175 156 190 186 196 192 180 168 173 199 180 179 178 175 174 171 166 162 164 157
148 147 149 152 154 157 157 159 164 164 164 163 160 159 143 85 114 143 139 161 152 163 187 191 189 186 194 194 180 170 168 169 180 181 192 181 177 173 171 168 165 166 164
150 150 149 145 154 163 162 163 169 161 169 164 159 139 152 108 127 147 158 169 165 171 179 182 170 183 200 179 163 157 171 165 171 176 178 182 169 171 172 178 174 170 163
144 138 149 158 158 161 162 169 159 165 169 169 166 137 189 118 142 156 171 198 171 172 166 166 170 190 177 147 153 167 165 164 166 173 176 180 175 178 182 179 175 178 171
138 144 154 155 155 158 163 169 166 170 174 168 173 156 147 144 124 121 131 140 163 158 162 172 167 152 148 154 171 180 171 169 170 166 168 171 172 178 187 191 188 191 179
148 152 148 153 161 164 168 172 167 177 171 174 186 150 149 139 115 114 135 141 126 159 169 155 164 148 153 165 169 172 166 163 162 161 167 173 178 179 186 190 190 189 169
150 145 148 155 154 161 169 173 187 188 184 192 175 167 166 153 133 122 140 143 148 171 155 149 146 150 151 140 150 159 161 162 162 163 165 166 174 171 167 158 163 172 193
146 147 152 149 152 157 173 182 183 175 169 175 174 165 170 158 150 137 136 139 136 140 144 144 142 143 149 140 143 154 163 165 165 167 165 163 157 159 162 164 164 166 184
146 148 152 151 152 147 164 158 158 166 162 184 172 183 165 166 160 146 135 136 147 143 142 137 137 141 144 145 145 143 157 156 150 148 142 140 150 162 173 178 185 169 167
148 154 156 153 157 148 131 136 139 153 171 166 163 163 153 165 156 151 155 161 142 144 139 143 149 152 153 151 146 144 142 146 151 154 160 160 167 169 180 189 182 185 195
159 149 151 153 151 146 141 131 125 131 135 147 153 171 170 152 150 148 154 146 142 130 141 151 157 157 153 143 155 151 156 162 158 161 167 171 174 176 177 187 195 206 213
158 151 164 146 139 142 145 140 134 128 121 136 152 141 130 138 137 142 150 149 131 130 142 154 160 163 162 154 160 164 171 173 168 177 180 181 185 190 193 202 207 215 221
156 166 164 136 135 145 150 148 142 128 129 137 143 142 138 140 140 140 151 153 154 150 150 149 150 156 165 166 167 172 180 174 183 186 185 189 196 200 209 214 221 226 232
165 174 162 131 137 144 136 142 140 139 126 132 137 156 151 151 153 151 155 162 171 162 164 165 170 169 176 176 185 191 177 193 200 203 197 191 199 212 220 226 233 238 243
163 180 171 151 157 141 149 135 149 146 141 129 132 150 148 153 158 156 156 166 165 169 177 179 183 183 182 185 192 193 208 209 206 212 209 212 216 223 230 235 240 244 249
166 166 182 176 152 149 140 143 146 150 145 143 128 120 134 141 151 165 177 163 162 164 168 188 179 186 192 201 209 205 212 221 218 219 223 225 230 236 240 244 247 250 254
174 165 188 183 151 139 148 149 145 146 147 144 132 133 152 143 183 165 166 176 178 175 175 165 176 185 192 203 211 220 224 231 234 230 233 237 238 241 244 247 251 255 258
166 164 180 174 159 166 170 147 146 135 124 151 135 140 146 165 134 159 148 149 165 168 157 171 201 220 206 199 204 209 220 228 233 244 245 249 250 252 253 256 259 261 263
159 160 164 124 132 128 131 132 137 107 131 104 111 116 113 143 128 114 103 78 85 149 184 197 212 215 222 229 227 233 238 238 240 240 238 246 260 259 260 262 265 268 268
175 175 169 150 148 153 151 146 145 146 143 141 138 143 142 141 149 157 163 145 123 129 168 192 219 230 234 231 233 236 240 241 243 248 249 250 257 267 268 269 271 272 272
Wind_Speed_850mb
47 49 54 53 44 47 46 41 37 37 33 29 26 21 20 21 21 23 29 25 27 29 29 25 23 19 20 22 19 19 19 26 28 31 28 32 30 27 36 27 31 36 35
50 52 51 52 48 44 41 36 34 30 27 24 23 22 20 17 19 18 16 18 24 32 31 34 26 18 20 24 26 18 16 28 31 31 33 30 27 26 29 32 34 37 39
49 49 47 45 43 41 36 32 29 26 25 23 23 20 18 15 11 13 16 23 29 31 25 31 21 22 21 25 24 21 19 24 32 31 36 32 33 31 36 36 41 43 43
44 44 43 41 38 36 32 29 26 26 25 23 21 16 14 8 7 9 15 21 25 29 23 26 26 16 19 26 28 24 23 25 36 34 35 34 33 32 38 45 45 41 45
45 42 39 36 34 31 29 28 28 27 25 24 19 16 10 3 9 10 8 9 17 13 23 28 26 19 23 26 24 29 28 31 32 33 40 40 38 41 49 50 50 50 49
41 38 36 34 32 32 31 33 30 28 26 21 19 14 10 9 9 2 6 1 11 13 21 28 23 17 24 29 23 22 29 35 31 41 46 45 48 49 50 52 54 63 63
38 37 34 33 34 33 33 32 30 27 26 21 17 12 8 3 1 8 12 6 15 24 24 27 16 21 23 24 23 25 32 28 21 42 47 51 51 53 59 58 61 68 86
37 35 30 32 32 34 34 31 30 26 23 19 16 11 7 2 4 10 15 11 17 14 17 23 19 17 20 23 24 27 32 30 22 26 37 44 44 52 54 57 66 72 64
36 30 31 27 29 32 34 34 29 25 21 15 12 10 7 5 8 11 13 10 15 13 11 17 20 18 19 19 29 32 32 36 31 24 31 42 44 54 63 56 68 71 69
35 29 24 27 27 35 34 33 27 22 19 16 11 11 6 5 10 10 13 8 12 15 14 24 22 16 17 33 34 40 38 39 39 32 34 33 45 48 42 57 61 69 68
34 26 25 27 29 31 29 30 26 23 21 18 15 13 9 6 9 8 7 10 17 17 19 25 26 18 35 38 37 34 36 42 37 33 37 43 45 42 42 48 49 55 63
35 30 27 27 28 28 28 27 24 23 20 18 14 11 10 9 11 11 12 17 14 10 22 26 30 31 35 32 30 32 36 38 38 37 44 45 55 43 42 47 41 45 40
34 30 27 28 28 27 25 23 23 20 23 24 18 15 13 14 13 9 12 17 23 17 29 33 36 38 40 27 22 29 34 37 40 43 44 45 45 39 36 42 38 45 30
32 29 30 29 25 22 17 16 14 15 17 19 21 21 17 18 16 12 13 18 19 29 38 40 38 40 38 33 32 30 28 32 38 37 40 39 39 50 55 40 35 27 22
32 30 30 27 25 19 15 15 15 18 17 18 19 19 22 23 20 18 20 19 26 35 44 42 42 42 43 39 35 28 30 38 41 41 60 49 49 44 38 32 28 36 21
33 31 31 22 24 22 16 19 15 18 16 17 19 18 18 19 23 24 29 22 28 37 41 40 43 43 39 41 45 29 38 37 42 43 45 38 37 33 30 29 31 33 20
30 30 25 23 23 31 26 19 17 18 16 20 24 19 9 27 25 24 26 26 31 34 25 29 38 39 43 36 39 30 38 34 37 34 36 32 30 27 30 27 27 26 27
27 26 26 23 24 29 27 22 19 17 18 20 20 19 24 26 25 27 31 34 35 27 23 24 30 34 40 26 30 32 35 32 33 33 33 30 36 34 30 28 29 28 29
33 27 22 26 30 28 27 21 24 21 24 20 27 27 28 28 25 25 29 24 20 21 20 23 24 26 31 28 25 25 25 26 26 27 29 32 34 35 31 30 30 31 31
30 26 19 29 21 28 22 24 23 25 24 22 21 25 31 33 32 31 32 27 18 15 21 22 25 23 23 26 26 24 24 25 25 24 24 28 32 36 34 34 34 36 36
33 30 15 24 23 31 33 30 32 28 26 24 22 20 23 24 31 32 29 23 20 18 18 20 21 21 23 26 29 31 27 25 26 26 28 30 32 36 38 39 39 39 41
36 33 25 27 25 28 28 26 23 28 31 35 25 27 34 29 17 19 21 21 17 18 14 14 23 19 23 24 23 21 24 27 28 29 32 34 36 38 40 42 43 44 44
34 33 28 19 25 27 23 24 23 24 29 34 27 26 29 13 19 18 16 17 17 16 15 14 14 13 14 16 18 20 22 25 26 29 31 32 35 37 39 41 43 46 50
24 30 30 22 27 25 23 19 22 18 15 31 30 24 15 10 13 15 21 20 16 12 8 7 9 15 20 27 30 27 27 26 25 26 30 33 36 38 41 45 48 51 54
32 29 21 18 24 20 28 30 31 42 29 34 38 33 31 25 26 25 30 28 18 18 20 21 26 28 30 27 31 32 33 33 38 40 37 33 30 38 44 47 50 52 55
39 41 45 43 41 40 40 42 41 35 35 34 29 33 26 31 26 27 26 23 14 12 14 18 24 25 25 28 38 47 48 48 50 52 57 60 57 42 43 49 52 57 62
Wind_Direction_850mb
156 156 158 159 153 147 152 150 153 151 159 168 179 187 201 203 205 214 222 220 223 222 220 219 226 244 227 198 202 201 218 197 180 169 167 161 165 163 171 158 163 171 166
148 149 149 144 143 144 145 149 151 154 163 175 184 186 186 193 212 227 228 231 236 226 228 228 235 234 222 196 201 197 184 185 177 163 160 156 155 163 174 167 169 167 169
143 143 139 142 142 144 148 152 155 164 168 168 169 174 184 199 223 238 240 240 234 239 255 229 232 222 213 197 194 195 197 187 180 165 169 176 174 182 169 167 171 168 169
145 142 141 142 146 150 154 157 163 162 162 162 168 179 178 193 227 260 254 257 246 246 232 209 201 210 203 198 196 183 193 176 171 176 176 170 166 165 167 161 156 166 162
143 143 144 147 152 156 160 163 162 162 162 167 166 172 169 176 234 244 300 265 218 223 190 191 190 206 193 181 184 184 175 165 162 179 173 165 165 164 164 167 161 163 161
145 147 147 149 151 153 157 160 157 160 168 158 179 161 149 222 286 257 168 81 152 171 180 178 190 187 174 186 180 181 174 170 180 178 173 172 169 171 172 167 156 156 148
145 145 145 150 154 155 158 155 159 168 159 175 155 163 131 274 351 134 141 129 145 155 165 175 156 190 186 196 192 180 168 173 199 180 179 178 175 174 171 166 162 164 157
148 147 149 152 154 157 157 159 164 164 164 163 160 159 143 85 114 143 139 161 152 163 187 191 189 186 194 194 180 170 168 169 180 181 192 181 177 173 171 168 165 166 164
150 150 149 145 154 163 162 163 169 161 169 164 159 139 152 108 127 147 158 169 165 171 179 182 170 183 200 179 163 157 171 165 171 176 178 182 169 171 172 178 174 170 163
144 138 149 158 158 161 162 169 159 165 169 169 166 137 189 118 142 156 171 198 171 172 166 166 170 190 177 147 153 167 165 164 166 173 176 180 175 178 182 179 175 178 171
138 144 154 155 155 158 163 169 166 170 174 168 173 156 147 144 124 121 131 140 163 158 162 172 167 152 148 154 171 180 171 169 170 166 168 171 172 178 187 191 188 191 179
148 152 148 153 161 164 168 172 167 177 171 174 186 150 149 139 115 114 135 141 126 159 169 155 164 148 153 165 169 172 166 163 162 161 167 173 178 179 186 190 190 189 169
150 145 148 155 154 161 169 173 187 188 184 192 175 167 166 153 133 122 140 143 148 171 155 149 146 150 151 140 150 159 161 162 162 163 165 166 174 171 167 158 163 172 193
146 147 152 149 152 157 173 182 183 175 169 175 174 165 170 158 150 137 136 139 136 140 144 144 142 143 149 140 143 154 163 165 165 167 165 163 157 159 162 164 164 166 184
146 148 152 151 152 147 164 158 158 166 162 184 172 183 165 166 160 146 135 136 147 143 142 137 137 141 144 145 145 143 157 156 150 148 142 140 150 162 173 178 185 169 167
148 154 156 153 157 148 131 136 139 153 171 166 163 163 153 165 156 151 155 161 142 144 139 143 149 152 153 151 146 144 142 146 151 154 160 160 167 169 180 189 182 185 195
159 149 151 153 151 146 141 131 125 131 135 147 153 171 170 152 150 148 154 146 142 130 141 151 157 157 153 143 155 151 156 162 158 161 167 171 174 176 177 187 195 206 213
158 151 164 146 139 142 145 140 134 128 121 136 152 141 130 138 137 142 150 149 131 130 142 154 160 163 162 154 160 164 171 173 168 177 180 181 185 190 193 202 207 215 221
156 166 164 136 135 145 150 148 142 128 129 137 143 142 138 140 140 140 151 153 154 150 150 149 150 156 165 166 167 172 180 174 183 186 185 189 196 200 209 214 221 226 232
165 174 162 131 137 144 136 142 140 139 126 132 137 156 151 151 153 151 155 162 171 162 164 165 170 169 176 176 185 191 177 193 200 203 197 191 199 212 220 226 233 238 243
163 180 171 151 157 141 149 135 149 146 141 129 132 150 148 153 158 156 156 166 165 169 177 179 183 183 182 185 192 193 208 209 206 212 209 212 216 223 230 235 240 244 249
166 166 182 176 152 149 140 143 146 150 145 143 128 120 134 141 151 165 177 163 162 164 168 188 179 186 192 201 209 205 212 221 218 219 223 225 230 236 240 244 247 250 254
174 165 188 183 151 139 148 149 145 146 147 144 132 133 152 143 183 165 166 176 178 175 175 165 176 185 192 203 211 220 224 231 234 230 233 237 238 241 244 247 251 255 258
166 164 180 174 159 166 170 147 146 135 124 151 135 140 146 165 134 159 148 149 165 168 157 171 201 220 206 199 204 209 220 228 233 244 245 249 250 252 253 256 259 261 263
159 160 164 124 132 128 131 132 137 107 131 104 111 116 113 143 128 114 103 78 85 149 184 197 212 215 222 229 227 233 238 238 240 240 238 246 260 259 260 262 265 268 268
175 175 169 150 148 153 151 146 145 146 143 141 138 143 142 141 149 157 163 145 123 129 168 192 219 230 234 231 233 236 240 241 243 248 249 250 257 267 268 269 271 272 272